Regional Weather Roundup
Issued by NWS

Home | Current Version | Previous Version | Graphics & Text | Print | Product List | Glossary On
Versions: 1 2 3 4 5 6 7 8 9 10 11 12 13 14 15 16 17 18 19 20 21 22 23 24 25 26 27 28 29 30 31 32 33 34 35 36 37 38 39 40 41 42 43 44 45 46 47 48 49 50
000
ASUS45 KCYS 090310
RWRWY

WYOMING REGIONAL WEATHER ROUNDUP
NATIONAL WEATHER SERVICE CHEYENNE WY
900 PM MDT TUE JUL 08 2014

NOTE:  "FAIR" INDICATES FEW OR NO CLOUDS BELOW 12,000 FEET
WITH NO SIGNIFICANT WEATHER AND/OR OBSTRUCTIONS TO VISIBILITY.

WYZ001-090400-
YELLOWSTONE NATIONAL PARK

CITY           SKY/WX    TMP DP  RH WIND       PRES   REMARKS
LK YELLOWSTONE   N/A     62  41  46 CALM      30.29S
W YELLOWSTONE  NOT AVBL

$$
WYZ002>013-054>058-071-098>099-090400-
NORTHERN WYOMING

CITY           SKY/WX    TMP DP  RH WIND       PRES   REMARKS
JACKSON        PTCLDY    77  41  27 CALM      30.15R
CODY           CLEAR     73  46  38 N5        30.09S
GREYBULL       CLEAR     83  45  26 N12       29.99S
WORLAND        CLEAR     77  49  37 NE6       30.00R
SHERIDAN       CLEAR     73  50  44 E3        30.08R
BUFFALO        CLEAR     67  49  52 W8        30.15R
GILLETTE       CLEAR     68  48  48 E6        30.11R
HULETT         FAIR      61  50  67 MISG      30.13
NEWCASTLE      FAIR      70  41  35 SE6       30.12

$$
WYZ014>020-022>026-101>103-090400-
CENTRAL WYOMING

CITY           SKY/WX    TMP DP  RH WIND       PRES   REMARKS
BIG PINEY      PTCLDY    75  39  27 NW9       30.20R
PINEDALE       PTCLDY    72  45  37 N6        30.21S
DUBOIS         FAIR      70  43  37 S9        30.21S
LANDER         CLEAR     78  45  30 N6        30.07R
RIVERTON       CLEAR     79  42  26 NE8       30.08R
CASPER         CLEAR     76  42  29 E10       30.10S
DOUGLAS        CLEAR     72  41  32 E8        30.13S

$$
WYZ021-027>030-104>119-090400-
SOUTHERN WYOMING

CITY           SKY/WX    TMP DP  RH WIND       PRES   REMARKS
EVANSTON       PTCLDY    76  36  23 NW7       30.23R
FORT BRIDGER   FAIR      78  32  19 NW8       30.24R
ROCK SPRINGS   MOCLDY    78  29  16 NW7       30.17R
DIXON          FAIR      74  36  25 NE10      30.19R
RAWLINS          N/A     74  36  25 NE9       30.20R
SARATOGA       FAIR      72  34  25 NE3       30.22S
LARAMIE        CLEAR     64  52  64 SE17      30.27R
CHEYENNE       CLEAR     69  51  52 S8        30.24R
TORRINGTON     PTCLDY    72  50  45 E9        30.11R

$$



USA.gov is the U.S. government's official web portal to all federal, state and local government web resources and services.